Wind_Speed
8 5 3 2 1 2 1 3 1 2 1 2 2 1 4 4 1 4 7 5 3 4 3 6 6 2 1 2 4 6 5 4 4 4 4 5 2 22 30 10 13 33 40 41 41 41 40 38 38 37 37 37 36 35 33 32 32 32 34 33 30 27 25 25 27 28 29 31 31 30 28 28 28 29 29 28 27 26 25 23 22 21 21 21 20 20 19 19 19 19 19 19 20 20 20 21 21
9 5 3 1 1 3 1 3 3 2 2 3 3 3 5 4 3 5 7 4 2 7 10 9 7 3 1 1 3 3 2 2 3 4 2 2 6 22 26 10 17 34 41 42 41 42 41 39 38 37 37 37 37 36 34 34 33 33 35 35 31 28 27 26 27 27 28 32 32 31 29 28 28 29 30 28 27 26 24 22 22 21 22 21 21 21 20 19 19 19 19 19 19 20 21 22 21
9 5 3 2 1 3 1 4 2 1 2 4 4 4 4 3 5 7 7 5 5 9 11 9 7 2 3 6 1 1 4 4 1 2 1 7 9 21 27 12 19 34 41 42 41 43 42 41 39 39 38 37 37 36 36 35 34 34 36 35 32 30 29 27 27 26 27 32 33 32 31 30 30 29 29 28 27 26 23 22 23 22 22 22 22 21 21 20 20 20 20 20 19 20 22 21 20
7 5 4 2 2 4 3 2 2 4 3 4 4 5 3 3 6 7 7 7 8 9 9 7 5 2 1 4 3 1 2 5 2 3 1 9 11 23 28 14 23 34 40 43 43 44 43 43 41 40 39 38 37 36 37 36 35 36 37 35 32 31 31 29 28 26 26 31 33 33 33 32 31 30 28 27 27 25 23 23 24 23 23 23 22 21 21 21 21 21 21 20 20 22 21 20 21
4 4 4 4 3 1 3 1 2 4 4 4 2 6 4 5 5 7 8 9 9 5 8 7 4 4 1 1 1 3 5 7 4 2 3 9 12 24 28 17 26 34 38 42 43 44 44 44 42 41 41 39 38 37 37 37 36 38 39 34 32 33 32 31 30 28 27 30 33 32 32 31 31 30 28 26 26 24 22 23 24 23 23 23 22 22 21 21 22 21 22 21 21 22 21 21 24
3 4 5 4 2 1 2 1 2 3 6 5 3 6 4 3 4 7 7 8 7 6 9 7 3 5 2 3 3 4 5 7 7 10 12 4 10 22 28 21 28 33 37 39 41 43 44 45 43 43 42 41 39 37 37 37 37 39 40 35 33 33 33 33 32 31 29 31 32 31 30 30 30 28 28 27 25 22 20 23 24 23 23 23 22 22 22 22 22 22 22 21 21 22 21 23 26
4 3 4 4 2 2 3 3 4 4 5 5 5 4 5 6 5 6 7 8 7 8 9 7 6 4 1 3 3 4 12 14 9 14 21 7 7 19 25 23 28 31 35 37 38 40 43 46 44 44 43 42 40 39 39 37 37 40 41 36 34 34 34 34 32 32 31 32 31 29 28 28 29 28 28 26 23 21 21 23 24 23 23 23 23 23 23 23 23 23 22 21 21 21 21 25 25
4 2 2 4 1 2 3 3 4 4 4 4 3 1 3 5 5 3 5 6 3 6 8 9 9 3 2 4 2 5 18 24 17 17 25 16 3 14 21 23 28 30 33 35 37 37 39 44 44 44 43 43 41 40 41 40 39 41 42 38 35 35 35 34 34 33 32 33 31 30 28 27 28 28 28 25 22 21 21 23 24 24 23 23 23 24 24 24 24 23 22 21 21 20 21 25 24
3 2 1 3 2 0 0 2 3 3 5 5 2 1 1 2 2 3 3 4 2 2 5 9 7 3 6 8 3 4 14 26 20 16 23 21 11 5 12 18 25 29 33 34 36 36 37 42 44 44 43 43 41 41 42 41 41 42 42 40 36 36 36 35 34 33 33 33 32 30 28 27 28 29 28 25 23 22 22 23 24 24 24 23 23 24 24 24 24 24 23 21 20 19 21 25 23
3 3 2 2 2 2 3 3 3 3 5 5 1 1 3 3 1 4 5 4 4 2 2 6 4 5 7 5 3 2 10 23 21 18 23 21 15 8 1 8 16 24 32 35 37 37 38 42 43 43 43 43 41 41 42 42 43 43 43 42 39 37 36 35 33 33 33 33 31 31 29 28 28 29 27 25 24 23 23 23 25 24 24 23 23 24 24 25 24 24 23 21 20 18 21 25 22
2 3 3 2 2 3 4 4 4 4 4 3 2 2 2 3 1 3 5 4 4 4 4 3 3 6 7 4 2 2 11 21 22 23 25 19 16 14 11 5 8 17 27 33 37 37 38 41 42 42 42 42 41 40 42 43 43 44 44 43 41 38 37 35 34 33 33 33 31 31 31 29 29 29 27 25 25 24 23 23 24 23 23 24 23 23 24 25 24 24 22 20 20 18 22 25 22
3 1 4 3 3 4 4 3 5 5 5 2 1 4 1 3 3 1 5 4 3 6 6 3 3 4 4 4 3 2 14 21 20 22 23 20 19 18 16 12 9 10 21 26 32 35 37 40 41 41 41 41 40 40 41 43 43 44 45 45 42 40 39 37 35 33 33 33 31 31 31 30 30 29 27 26 26 24 23 24 24 23 23 23 23 24 24 24 23 23 21 20 20 19 22 24 22
3 2 5 2 3 3 3 2 4 4 5 2 3 3 1 3 2 3 3 4 3 4 4 2 4 2 2 4 3 4 10 15 16 17 19 20 20 19 18 16 14 10 14 21 26 32 36 40 41 40 41 40 39 39 40 42 42 44 45 45 44 42 41 39 37 34 32 33 32 32 32 32 31 29 28 27 26 25 24 25 25 24 24 24 24 24 24 23 23 22 20 19 19 19 22 24 23
3 3 5 2 1 2 4 2 4 2 5 5 1 2 1 2 3 3 1 4 6 3 5 5 2 1 2 3 3 4 5 11 13 13 15 16 18 19 18 17 15 14 12 17 24 30 35 38 41 41 40 39 39 38 39 41 42 43 45 45 44 43 42 41 39 36 33 33 33 33 33 33 32 31 30 27 25 25 25 25 25 25 24 24 24 23 23 23 23 22 20 19 19 19 22 23 23
3 2 4 3 0 1 3 3 4 4 5 4 0 2 1 1 1 2 3 3 7 3 4 5 2 2 3 1 4 4 4 10 13 13 15 15 17 18 18 18 16 14 13 15 19 25 34 38 39 41 41 39 39 40 39 40 42 42 44 45 44 44 43 42 40 38 36 36 35 34 34 33 32 32 30 28 26 25 25 26 25 25 25 25 23 22 23 23 22 22 20 19 18 19 21 23 22
2 3 5 2 2 2 4 4 3 3 5 4 2 3 1 3 1 2 2 2 7 2 3 5 1 2 4 3 5 7 8 10 12 15 17 19 19 18 19 19 19 16 14 15 18 20 24 37 40 40 42 43 40 40 41 40 41 42 43 44 45 44 44 43 40 39 38 37 36 36 35 33 33 32 30 29 28 26 26 26 26 25 25 25 23 22 22 23 22 21 20 19 17 20 22 23 22
3 4 4 1 3 3 4 4 4 3 5 4 4 5 3 5 2 2 4 4 7 6 3 7 6 5 6 9 9 13 14 10 10 14 16 19 20 21 21 21 22 21 20 17 19 23 19 24 39 44 43 45 45 42 41 42 42 42 43 43 43 44 43 43 41 39 39 38 38 38 36 35 35 33 31 31 29 27 26 26 26 25 25 24 22 21 22 23 22 21 19 18 19 21 23 22 21
3 3 3 2 4 4 5 5 5 3 3 3 3 4 3 5 5 3 4 3 4 10 9 7 7 8 11 15 15 14 13 11 12 13 13 14 16 18 21 24 24 24 25 24 22 24 24 21 26 42 48 46 47 46 43 43 43 42 43 43 42 43 42 42 41 40 40 40 39 40 39 38 37 35 32 32 31 29 28 27 25 23 24 24 22 21 23 23 22 21 19 19 21 22 23 23 21
3 3 3 3 5 4 4 4 3 2 3 2 2 2 2 4 4 4 5 8 6 10 13 8 10 11 10 13 12 11 12 14 14 12 11 10 11 13 17 23 26 25 26 28 27 26 25 25 23 27 43 50 47 47 46 45 45 44 43 43 42 42 42 42 41 41 41 42 43 42 42 41 38 36 34 33 32 32 30 29 26 23 24 24 22 23 24 24 22 20 19 20 22 22 23 23 21
2 3 2 5 5 3 3 3 3 4 3 1 2 1 2 4 3 2 4 11 10 8 11 9 12 14 13 11 9 9 12 14 15 13 12 11 12 13 15 21 26 27 28 29 29 29 27 22 24 26 26 42 49 45 46 46 46 46 44 42 43 42 43 44 42 43 43 44 44 44 44 42 39 37 36 35 34 34 31 30 28 26 26 25 24 25 25 23 21 20 20 22 22 22 23 23 23
2 3 4 5 3 2 4 5 4 5 3 1 1 2 5 4 2 1 2 7 10 8 9 9 12 14 14 15 16 15 12 14 17 15 14 13 15 16 17 20 25 30 30 30 30 30 27 21 21 24 24 27 46 48 45 47 46 46 45 42 42 43 43 44 44 44 44 45 44 44 45 42 40 39 38 37 35 34 32 31 30 29 28 28 27 26 26 24 21 20 21 23 23 22 24 25 25
1 2 5 5 3 2 5 4 3 2 1 2 2 4 5 3 1 4 4 6 9 8 7 8 10 11 11 12 15 17 16 17 19 18 16 14 16 18 20 21 24 29 32 32 31 31 28 24 23 18 21 23 36 50 46 45 47 45 43 43 43 43 43 43 44 46 46 46 45 44 45 43 42 42 40 39 36 34 34 33 32 32 31 31 30 29 27 25 23 21 22 24 24 24 26 26 26
2 3 3 3 4 3 4 2 2 2 3 4 2 3 2 4 7 5 7 12 14 12 10 9 10 12 14 13 12 14 16 17 18 21 23 19 18 19 20 23 25 28 33 35 33 31 29 25 22 17 17 22 23 40 46 42 45 46 43 43 44 44 44 43 44 46 47 47 47 46 45 45 44 43 42 40 37 35 35 35 34 33 33 32 32 31 29 27 25 23 24 25 25 26 27 27 28
3 3 4 3 2 4 3 3 5 4 5 6 1 2 3 4 7 3 7 15 16 15 13 11 13 15 15 13 12 14 15 16 18 25 29 28 28 27 25 25 26 28 31 34 35 31 27 25 20 16 15 18 21 25 41 43 42 46 44 41 43 45 44 43 45 46 47 47 47 47 46 45 45 44 43 41 39 38 36 36 36 35 34 34 32 31 30 29 28 27 26 25 26 27 27 28 31
3 4 3 2 3 4 5 6 7 7 6 5 2 4 7 7 4 6 15 19 16 15 13 11 11 13 12 11 14 14 14 16 19 25 28 30 32 32 30 29 27 28 30 34 35 30 27 25 20 15 15 15 20 22 29 42 43 43 45 44 41 44 45 42 44 45 46 47 47 48 47 46 46 46 44 43 41 39 38 38 38 37 36 34 33 31 30 31 31 29 27 28 29 28 28 31 32
4 4 3 3 5 6 6 7 8 7 5 3 4 8 8 6 2 9 19 20 18 14 11 12 10 11 12 12 14 13 14 16 17 21 26 30 29 26 28 30 28 28 30 34 32 29 27 25 20 18 16 14 15 22 25 31 43 45 44 47 43 43 45 42 42 45 45 46 48 48 49 48 47 47 45 44 43 41 40 40 39 38 37 36 34 32 32 32 32 31 30 32 33 31 30 33 32
2 2 4 5 5 6 4 6 9 5 5 5 6 10 7 4 2 7 15 14 12 10 10 11 9 10 13 12 12 12 13 15 19 21 22 24 24 22 24 26 27 29 30 32 30 27 27 24 21 19 17 15 12 15 24 28 36 49 47 46 47 45 45 43 42 44 44 45 47 48 48 49 47 47 46 44 44 43 41 41 40 39 38 36 36 35 34 34 34 33 31 31 35 34 32 33 34
0 2 5 6 6 7 5 6 8 2 4 4 4 10 7 5 5 14 19 12 6 6 10 10 9 11 12 12 12 11 11 17 22 20 16 18 21 23 23 25 28 30 31 30 30 27 26 24 21 19 16 13 11 11 17 27 29 40 50 48 47 48 45 44 44 42 43 43 45 47 47 48 48 46 47 46 44 44 43 41 40 40 39 37 38 37 36 35 35 34 32 28 32 35 32 32 35
1 4 4 8 8 7 6 4 3 4 2 3 1 9 7 9 12 21 18 12 6 6 10 10 11 11 11 11 11 10 11 16 19 16 19 22 25 26 24 27 30 29 31 31 29 27 26 23 20 19 16 12 11 11 16 26 30 26 42 51 47 48 45 45 46 42 42 43 44 46 46 46 47 47 47 46 45 44 43 41 41 40 39 40 39 39 38 37 36 35 33 31 33 36 33 32 35
1 3 1 5 7 6 6 0 3 5 1 2 4 6 8 10 18 18 9 7 8 8 10 10 10 9 9 9 9 11 12 13 14 17 24 26 27 28 26 29 30 28 31 29 27 27 27 22 20 18 15 13 10 9 13 20 23 26 30 48 50 49 48 46 47 43 41 42 44 45 46 46 46 47 47 46 45 43 42 41 41 40 39 41 41 40 40 39 39 37 36 35 36 37 36 34 35
1 1 1 3 2 5 7 2 5 4 1 2 7 2 11 10 13 13 8 6 6 8 11 9 9 8 9 10 10 12 13 13 17 22 27 28 29 29 27 29 28 27 28 26 26 28 26 21 19 18 14 12 9 10 10 14 17 23 25 35 51 50 47 47 47 45 41 41 44 44 45 46 45 47 47 46 45 43 42 41 40 41 41 42 43 42 42 41 40 40 39 39 37 37 37 36 35
2 2 3 2 2 5 9 2 6 4 1 2 6 3 13 15 10 9 7 5 5 8 12 11 11 12 11 12 11 12 13 14 17 22 27 28 29 29 28 28 25 24 25 25 26 27 25 21 18 16 14 11 9 10 11 9 15 20 25 22 42 53 47 46 48 45 42 42 43 45 45 46 45 46 47 46 45 43 42 42 41 41 42 44 45 43 44 43 42 41 40 40 38 36 36 35 34
3 1 3 2 3 3 6 4 1 3 2 1 4 4 10 13 6 5 5 3 5 10 14 15 14 13 12 11 10 11 12 12 13 17 24 27 28 29 29 29 27 24 23 24 26 25 24 20 17 15 12 11 8 9 10 4 9 17 27 32 25 50 50 46 49 45 42 43 43 45 45 45 45 45 47 47 45 45 43 42 42 42 45 46 45 45 44 44 44 42 40 40 39 36 35 35 33
3 1 3 4 3 2 3 4 4 3 2 3 5 6 14 18 13 11 8 4 9 13 15 17 14 12 12 10 10 11 10 12 12 12 19 25 28 30 30 30 29 25 23 25 25 23 23 19 16 14 11 11 8 8 7 1 7 16 28 39 31 36 54 48 49 48 42 44 44 46 47 46 46 46 47 46 44 44 44 43 43 43 46 46 45 45 44 44 44 43 41 39 40 39 36 35 33
4 4 3 3 3 4 5 4 3 4 1 4 5 8 19 24 19 19 17 7 8 15 15 15 14 13 12 10 10 10 10 12 13 13 19 24 27 29 29 29 28 25 24 25 24 22 21 18 15 13 10 9 8 8 8 2 10 18 23 31 38 27 49 49 47 51 45 44 45 46 48 47 47 47 47 46 45 44 43 43 43 45 46 46 45 44 43 43 42 43 42 38 38 39 38 37 35
6 6 5 3 4 4 5 5 3 1 2 7 8 10 17 24 19 18 20 12 9 15 14 12 12 11 10 9 9 9 10 12 13 16 21 23 25 27 26 26 25 24 23 24 23 22 20 17 14 11 10 8 6 8 9 3 6 10 16 19 33 30 41 51 46 50 47 44 46 46 48 48 46 47 47 46 45 44 44 44 45 46 46 47 46 45 45 45 44 44 43 41 39 37 37 38 37
6 4 3 3 4 5 4 3 5 1 1 8 8 9 16 22 19 17 20 15 11 14 14 12 11 9 8 9 9 10 10 11 12 17 21 22 24 24 23 23 22 21 22 22 21 21 20 16 13 10 8 7 6 7 9 4 4 2 8 13 24 30 27 47 44 47 49 45 46 48 48 48 47 47 49 48 46 46 45 45 46 46 47 49 49 48 48 46 45 44 43 43 42 39 36 37 40
5 4 3 3 4 7 4 3 4 1 0 6 5 8 17 21 18 17 17 14 13 13 10 10 10 8 7 8 10 10 9 9 9 12 16 19 20 19 19 19 19 20 21 22 22 21 19 15 13 10 7 6 6 7 8 9 11 6 6 10 17 28 18 34 43 42 48 47 45 48 48 47 48 48 50 49 48 48 47 47 47 48 48 49 47 46 47 46 45 45 43 41 41 41 38 39 44
3 3 2 3 4 4 5 2 2 2 1 5 6 8 17 23 18 16 16 12 11 10 8 9 8 7 8 8 9 9 9 10 9 9 11 14 15 14 15 17 19 20 19 20 20 19 17 15 13 9 6 5 5 7 7 12 14 6 2 8 12 22 25 21 43 40 42 47 44 48 48 46 48 48 49 50 49 49 49 49 48 49 49 48 46 45 45 47 46 46 47 43 39 38 36 40 44
3 4 3 4 3 1 4 3 3 3 2 4 7 9 14 18 14 11 11 7 7 8 7 9 8 8 10 8 7 8 9 11 10 10 8 10 11 9 11 16 18 17 18 19 19 17 16 14 13 9 6 5 5 7 7 11 14 9 5 5 8 11 24 12 34 42 40 44 43 46 47 47 48 48 49 50 49 50 50 51 51 50 49 48 48 47 46 48 49 48 48 46 44 38 34 39 37
4 4 6 5 4 4 5 4 4 4 2 3 6 8 9 9 7 7 6 3 6 6 5 8 8 8 9 8 8 9 9 10 10 10 9 7 8 8 10 15 15 15 18 21 19 17 14 14 13 10 6 5 5 7 6 7 14 14 9 3 7 7 17 17 12 29 35 39 40 42 45 46 47 46 49 50 50 50 49 51 51 49 48 48 49 49 48 48 49 49 49 49 50 45 40 40 33
3 5 9 8 5 5 3 3 5 4 4 3 4 5 7 6 8 10 6 6 8 5 5 9 9 7 7 7 9 9 8 8 8 9 9 7 7 8 9 12 13 15 18 20 18 15 13 13 12 10 7 6 5 7 7 6 14 16 13 11 10 12 10 15 9 9 21 33 36 38 40 42 43 42 44 47 48 49 50 50 50 47 46 46 47 48 48 47 46 47 49 50 50 48 45 41 33
2 4 7 7 5 5 2 2 2 1 4 3 3 1 6 8 11 13 6 7 10 8 8 10 9 8 7 7 7 7 7 7 7 7 7 7 7 7 7 10 13 16 18 17 16 14 12 12 12 11 8 6 5 6 8 8 12 16 12 9 10 14 8 5 5 4 8 22 28 34 37 37 39 40 41 42 44 47 48 48 48 48 47 45 46 46 46 48 48 48 48 49 47 45 45 42 37
3 2 5 7 7 6 4 3 2 2 4 3 3 3 4 7 10 9 4 7 11 10 10 9 7 8 8 7 7 7 8 7 7 8 7 7 7 7 8 10 11 14 16 16 16 15 13 11 11 11 9 6 6 7 9 9 12 16 13 5 7 15 15 9 5 1 3 11 18 27 34 35 35 39 42 42 42 44 44 45 47 48 46 44 44 44 44 46 47 47 46 45 44 44 45 45 43
4 3 7 7 6 5 5 5 2 1 3 4 2 3 3 7 8 6 3 6 10 9 9 8 7 7 7 7 8 8 8 8 7 7 8 7 7 8 10 10 9 11 12 14 16 16 13 11 10 10 9 7 6 7 9 11 12 14 14 9 6 11 16 19 16 11 9 9 11 17 27 33 34 36 41 43 42 43 42 44 46 46 45 44 45 45 45 43 43 44 45 43 43 45 45 44 43
3 6 7 6 5 5 4 4 3 2 2 6 5 5 4 6 7 5 1 3 8 8 8 8 7 7 7 7 8 8 7 7 7 7 8 8 9 10 9 9 9 9 10 12 14 15 13 11 10 10 9 7 6 8 9 11 13 13 13 11 9 9 12 18 23 23 21 17 15 17 21 25 27 29 32 36 40 41 41 43 44 45 45 46 47 47 47 46 45 45 46 45 44 45 43 39 41
7 7 7 6 5 4 4 2 3 2 4 7 6 6 4 4 7 5 3 5 6 6 4 7 7 7 7 7 7 7 6 6 6 6 7 8 10 10 8 8 9 8 9 11 13 14 13 11 10 9 9 8 7 8 10 11 13 13 13 12 12 12 13 17 21 24 27 27 27 29 29 29 30 30 28 30 34 36 38 41 42 42 44 44 44 45 46 47 47 47 46 45 43 44 43 39 38
7 5 5 3 3 4 4 4 3 1 6 6 4 3 3 4 7 4 4 6 5 6 5 6 7 8 8 7 7 7 6 6 6 6 6 6 8 8 7 9 10 7 8 11 13 13 14 12 11 10 10 10 9 9 10 12 13 14 14 14 14 14 15 18 20 23 28 31 31 34 35 35 38 41 41 41 43 45 47 49 49 48 48 48 46 45 47 47 47 47 47 45 43 43 43 40 37
4 5 6 3 2 3 2 3 0 3 6 4 2 1 3 7 9 10 12 12 9 8 7 7 7 8 8 7 7 6 5 6 5 5 6 6 6 6 7 9 10 8 8 10 13 14 14 13 12 12 12 12 11 11 12 13 14 15 16 16 16 16 16 18 21 23 26 29 31 33 34 34 36 40 44 47 50 53 55 56 57 57 57 56 54 52 50 49 48 48 48 47 45 44 44 42 40
6 6 6 5 3 1 4 3 2 4 4 2 0 1 3 6 7 13 18 18 13 9 8 8 8 8 8 7 6 5 5 5 5 6 5 6 6 6 7 9 10 10 9 10 13 15 15 14 14 14 14 13 13 13 14 15 16 16 17 18 19 18 18 18 20 23 26 28 29 32 35 36 36 38 41 42 44 48 50 51 54 57 58 59 58 58 56 53 53 52 50 49 47 47 46 44 42
6 4 5 5 5 5 5 4 3 4 3 2 2 1 4 5 3 7 10 12 9 6 7 7 7 8 7 6 5 5 6 6 5 5 6 7 7 7 8 10 11 12 11 11 13 15 17 17 16 16 15 15 16 15 16 17 18 18 19 20 21 21 20 20 21 22 26 30 32 34 36 36 36 37 38 40 41 44 45 45 47 49 51 53 55 56 57 57 57 56 54 52 50 48 46 44 42
3 2 4 3 4 5 2 3 4 3 2 3 3 4 5 5 8 11 9 9 8 7 7 6 7 8 5 5 6 5 6 6 5 5 7 8 8 7 9 11 13 13 12 13 14 16 19 19 18 18 17 16 17 18 18 18 19 20 21 22 23 23 22 22 22 23 26 30 33 35 36 37 37 34 33 35 37 41 43 43 44 45 45 48 51 53 54 56 57 56 55 53 52 50 47 46 44
3 3 4 4 3 5 3 2 1 4 2 4 3 5 5 3 9 11 7 9 9 8 8 8 8 7 6 6 7 6 6 6 6 6 7 8 7 7 10 13 14 15 15 16 17 17 19 20 20 20 18 17 18 19 20 20 20 21 22 23 24 25 25 25 25 25 26 29 31 33 34 35 37 35 34 35 36 39 42 41 42 43 43 45 48 50 52 54 55 55 55 55 54 52 50 49 47
6 4 5 3 2 3 3 1 3 3 3 5 3 6 4 1 5 6 5 6 6 6 7 8 6 6 7 8 7 7 8 7 7 7 7 7 6 7 11 14 17 18 18 18 18 17 18 19 20 21 20 20 19 20 21 21 21 22 22 23 25 26 26 27 27 27 28 28 30 32 32 33 34 35 36 36 36 38 39 39 39 40 41 42 44 48 49 51 53 54 54 55 56 54 51 50 49
4 4 3 3 3 2 2 3 2 2 3 5 4 5 4 5 5 3 2 5 6 6 6 6 7 8 8 8 8 8 8 6 7 7 7 7 7 8 12 15 19 20 20 20 18 17 17 18 20 21 22 21 20 19 20 21 21 22 22 22 24 25 26 26 27 27 28 29 31 32 33 33 34 34 35 35 37 38 38 39 39 38 40 41 42 45 46 48 50 52 52 52 53 54 53 51 49
2 1 0 1 2 4 3 3 3 3 3 4 3 3 4 7 7 6 8 9 8 6 6 8 10 10 9 8 8 8 7 7 7 7 7 7 8 10 14 17 20 21 21 20 19 18 17 18 19 21 22 22 21 21 21 21 21 21 22 22 22 23 24 26 27 27 27 29 30 32 33 35 35 36 37 37 37 38 38 40 40 39 40 41 42 43 44 45 46 47 49 48 48 50 51 49 48
5 4 4 3 2 2 1 1 2 4 3 3 3 5 5 5 5 8 10 9 9 9 9 10 10 10 10 9 8 8 8 8 8 7 7 8 8 10 15 19 20 21 20 19 19 20 19 18 18 19 21 22 23 23 23 23 22 22 23 23 23 24 25 26 27 28 28 29 30 32 33 34 35 37 39 39 39 39 39 40 41 41 41 41 42 43 44 45 45 44 45 45 45 47 47 45 44
7 7 7 8 6 4 2 3 1 3 3 4 3 6 7 4 4 7 8 8 9 10 10 9 9 10 9 8 9 9 9 9 9 8 8 8 7 9 13 17 17 17 19 20 21 21 21 20 20 19 19 21 22 24 25 25 24 24 24 24 24 25 26 26 27 28 29 30 30 31 32 33 34 36 37 39 40 40 40 40 41 43 42 41 41 43 43 45 46 45 44 43 44 44 43 42 43
Wind_Direction
352 347 2 358 341 112 60 64 92 316 83 262 266 207 257 248 283 288 281 308 327 289 310 308 285 254 241 233 193 178 171 170 167 152 206 265 240 171 167 169 183 173 173 173 173 172 171 173 173 172 171 171 171 172 172 173 172 170 171 170 168 168 166 164 158 155 157 155 152 151 151 151 150 149 148 146 145 143 139 136 136 138 140 141 140 140 140 138 134 132 129 125 123 125 129 128 127
0 4 19 20 29 105 196 68 121 304 48 275 277 189 254 300 311 261 264 290 276 294 315 303 278 270 4 78 132 125 223 249 163 164 240 169 140 171 172 183 183 174 174 173 173 173 172 174 174 174 174 173 173 173 173 174 174 172 172 170 169 169 167 167 163 160 160 158 156 155 155 155 155 154 152 150 149 146 140 138 137 139 142 141 141 140 141 141 137 135 131 129 126 127 130 131 129
2 12 31 108 61 54 111 50 116 162 130 247 271 235 270 307 268 256 267 276 279 302 314 305 293 278 27 12 36 123 260 297 144 161 75 147 148 176 181 192 184 177 176 174 175 174 174 175 175 176 176 175 175 175 174 174 174 174 173 170 171 170 169 169 166 165 164 161 159 159 158 158 158 156 156 154 152 149 145 143 141 141 143 142 141 141 142 142 140 139 136 132 130 131 133 132 131
3 18 28 86 71 26 75 65 146 135 168 230 264 264 259 248 265 283 296 300 300 318 328 321 323 275 83 344 286 107 289 302 235 168 129 179 179 178 179 187 183 178 177 176 177 176 176 176 176 177 176 176 177 177 176 176 175 174 173 173 174 171 170 169 167 168 167 165 162 162 160 160 160 159 159 158 154 150 149 148 144 144 144 142 141 140 142 142 141 142 140 135 135 136 135 135 136
14 40 38 61 93 58 105 112 137 135 203 189 215 269 247 244 290 309 312 310 303 350 359 347 346 311 332 352 320 29 329 312 298 321 308 200 183 177 177 181 182 179 179 179 179 179 178 177 177 177 177 177 178 179 178 178 176 174 174 176 176 172 171 170 168 170 170 169 166 164 163 163 163 161 161 158 155 152 152 150 145 145 144 142 141 140 141 141 142 143 142 139 139 138 138 140 139
39 71 49 48 93 161 117 165 185 200 227 165 183 263 274 302 332 315 318 320 324 31 18 12 352 294 313 10 45 57 351 334 317 345 355 242 189 181 179 179 183 181 181 181 182 182 180 179 179 178 178 177 178 180 180 180 177 176 176 177 177 173 173 172 171 171 172 173 170 168 168 168 166 164 161 158 155 153 154 150 145 146 144 142 141 141 141 142 141 142 143 141 141 142 144 144 138
33 75 35 52 38 23 114 189 206 222 240 177 192 272 324 340 341 336 348 346 351 12 11 3 332 300 243 1 33 26 17 15 340 1 20 18 204 187 181 180 183 182 183 184 184 185 183 181 181 180 180 179 179 180 181 181 179 178 178 178 179 176 174 175 175 173 173 174 173 174 174 171 168 166 162 158 155 153 154 148 146 146 144 144 143 141 141 142 142 143 144 142 142 145 150 146 138
44 83 32 90 53 18 112 211 223 212 245 227 213 323 353 332 332 15 358 346 3 354 358 343 342 10 289 350 10 343 10 13 2 15 31 41 110 182 184 184 185 184 185 186 187 188 186 184 183 182 181 181 181 181 181 181 181 180 179 180 179 177 175 177 178 177 175 174 176 179 177 173 170 167 162 158 156 154 153 149 147 147 146 146 144 143 142 144 144 145 145 144 144 147 152 148 141
70 63 46 101 121 140 68 249 248 236 256 275 293 7 316 317 8 54 353 330 2 355 1 339 355 45 309 338 332 313 3 4 7 23 27 31 46 134 186 191 191 190 188 188 190 191 190 188 186 185 183 184 183 182 181 181 182 180 181 181 180 178 177 179 181 180 178 176 178 180 177 175 172 168 163 158 156 156 154 151 149 148 149 148 146 145 144 145 146 147 147 146 146 146 153 152 147
53 35 116 106 117 176 286 259 251 252 248 266 283 339 319 331 65 50 10 319 327 349 333 316 6 26 323 314 302 348 7 0 7 12 8 10 18 31 75 213 209 198 192 192 192 193 192 191 189 188 186 186 185 185 183 182 182 181 182 182 182 180 178 181 182 183 182 179 179 179 178 177 174 168 164 159 157 157 156 153 150 150 150 149 148 147 147 148 148 149 150 149 148 147 156 157 153
48 348 108 98 103 178 233 239 256 252 262 289 310 325 326 343 53 54 5 314 332 342 310 333 32 355 320 287 267 49 17 11 9 357 354 353 351 355 2 339 254 217 200 196 194 194 193 192 192 191 189 188 188 188 185 184 183 182 182 183 183 180 179 181 182 184 183 182 181 180 178 177 174 168 164 161 159 159 158 154 151 152 153 151 151 150 150 150 152 153 152 151 150 151 158 158 155
110 314 79 107 170 193 205 221 261 261 292 306 253 305 326 29 52 41 337 299 330 327 307 12 1 313 302 278 240 353 15 18 7 351 347 344 339 339 342 345 323 250 216 204 197 195 194 193 194 193 193 191 190 191 189 187 186 184 183 184 183 181 180 181 183 184 183 182 182 180 178 176 174 168 163 162 162 161 158 155 153 154 154 153 153 152 152 153 155 154 153 152 151 154 158 157 157
129 152 97 137 192 178 171 198 269 277 303 260 199 268 189 94 119 218 264 251 272 305 284 317 319 299 247 264 278 344 7 13 4 350 343 338 332 330 325 322 330 308 243 217 205 200 197 194 194 195 195 193 193 194 192 190 188 186 184 184 183 181 181 181 182 183 182 182 182 182 179 176 174 167 164 165 165 162 157 155 155 156 156 155 155 153 153 155 156 154 153 151 151 155 157 157 157
137 147 118 166 212 145 163 210 269 239 263 258 235 311 259 137 174 208 217 296 275 226 266 273 237 248 258 277 317 316 333 356 2 348 339 333 322 319 319 317 318 315 282 234 216 207 201 197 196 196 196 195 195 195 195 193 192 189 186 185 183 182 181 181 182 182 183 183 182 182 179 176 172 167 167 167 164 160 157 157 156 157 157 157 159 157 155 156 157 156 153 152 155 157 157 157 158
136 129 96 125 35 267 197 219 219 190 238 243 318 338 316 216 66 38 82 324 280 232 305 298 153 219 236 221 275 263 305 339 344 337 331 325 318 310 308 318 320 314 295 263 241 221 205 200 199 197 196 196 196 196 197 196 195 192 188 186 183 183 183 181 181 181 182 182 180 180 179 174 170 168 168 165 162 161 160 159 157 158 159 158 159 157 156 159 159 157 155 156 159 157 156 158 158
108 106 73 105 195 232 217 214 189 187 249 240 300 10 53 252 354 4 185 221 277 308 353 296 285 258 255 234 256 287 305 316 321 322 321 316 317 312 303 306 315 318 301 280 273 265 225 204 201 200 197 196 197 196 196 197 197 194 190 187 185 185 184 182 181 180 181 182 179 179 176 172 169 170 168 165 163 164 163 160 159 161 160 159 158 156 157 161 159 159 159 160 160 156 155 157 157
59 84 80 144 198 208 208 201 186 191 250 268 328 21 40 281 291 280 228 206 262 290 288 257 252 240 260 262 272 295 293 294 312 317 320 321 320 318 313 305 307 312 309 298 284 295 286 227 206 202 200 197 196 195 196 196 198 197 192 189 187 186 184 183 182 181 181 179 178 176 173 171 170 170 168 166 165 164 163 161 163 164 160 159 161 158 159 161 159 161 161 160 160 156 155 155 155
58 95 120 200 196 194 193 194 199 190 245 275 330 15 26 310 309 326 292 227 264 298 290 262 261 246 242 256 273 288 278 281 306 319 320 319 320 318 315 309 306 305 306 308 299 301 305 284 233 208 201 198 196 194 194 195 196 197 194 191 189 187 185 183 182 182 180 176 177 173 170 171 170 170 170 166 165 165 164 163 166 165 160 160 160 157 159 161 160 164 161 159 161 158 156 154 151
92 127 144 219 199 202 201 190 214 238 243 252 313 4 26 306 303 356 323 295 319 316 300 303 303 286 261 252 259 276 276 280 292 308 306 300 306 306 305 304 303 303 302 304 304 304 300 302 293 241 209 198 196 194 192 192 194 194 194 192 190 188 185 184 183 181 178 175 174 172 169 170 171 172 170 167 167 167 166 166 166 161 159 160 160 159 162 164 162 162 158 159 163 159 155 152 149
131 126 172 237 214 235 246 186 201 229 234 290 292 308 319 277 272 358 319 299 306 292 284 298 300 297 300 293 280 279 277 276 283 291 288 284 285 282 286 292 296 298 300 301 300 303 300 301 313 299 245 206 196 194 193 191 191 191 192 191 189 188 185 184 183 181 179 175 172 171 171 171 173 171 169 169 169 169 168 167 165 159 158 162 163 161 165 169 163 156 156 161 163 160 154 151 152
144 141 186 227 212 258 248 198 202 228 232 308 278 335 305 265 204 246 295 299 293 267 251 248 263 281 294 301 305 303 288 278 283 283 279 279 280 276 273 279 289 294 297 299 296 299 299 299 311 315 299 238 203 194 193 191 189 188 189 189 188 187 186 184 182 181 178 176 173 172 171 172 172 169 169 171 171 171 169 167 166 162 161 164 166 164 165 168 164 158 159 161 163 162 153 155 155
174 224 196 207 174 243 254 211 209 243 301 344 341 321 287 285 251 206 202 251 262 259 249 230 240 261 272 282 298 305 302 296 293 289 282 273 269 270 272 277 285 292 294 293 293 296 293 299 313 312 311 284 219 197 192 192 188 187 187 186 187 187 186 184 182 180 176 176 174 172 171 171 170 169 170 172 172 172 170 168 167 165 165 166 167 167 165 166 164 159 157 158 161 161 156 160 155
185 270 268 225 177 214 267 269 289 337 346 313 318 282 272 333 302 230 206 238 248 257 261 254 252 256 266 274 281 288 288 289 291 291 290 283 273 266 267 274 279 287 290 289 289 292 290 296 313 309 304 303 251 203 192 192 189 188 189 186 186 187 186 183 182 180 177 175 174 173 172 170 169 169 171 172 173 172 170 170 167 167 167 168 169 167 164 164 161 156 156 157 159 159 160 163 151
136 249 297 271 215 224 259 308 298 325 304 267 233 308 299 280 288 282 238 249 252 260 264 261 266 267 271 274 271 271 271 273 275 278 283 284 281 277 273 271 275 280 281 284 286 285 288 293 303 305 294 299 286 227 196 192 192 189 189 188 187 187 187 184 183 180 177 175 175 174 173 171 170 169 171 172 173 172 172 171 168 168 167 168 170 167 164 161 157 157 158 159 159 160 163 160 147
154 222 273 289 297 270 290 306 293 299 281 266 262 276 255 229 272 302 266 264 263 260 268 267 266 272 271 266 264 266 266 268 268 270 273 274 275 277 277 275 274 275 274 279 282 281 285 293 297 294 286 283 288 268 214 194 192 191 189 188 188 188 188 185 183 180 177 176 176 176 174 173 171 170 171 172 172 172 172 171 168 168 167 168 169 168 165 159 157 159 160 160 160 161 160 155 146
208 209 252 288 298 292 304 298 290 296 283 304 302 274 258 227 274 284 260 259 266 266 271 270 267 270 268 263 262 262 263 264 265 267 268 269 271 270 271 275 273 269 273 276 276 279 284 290 295 289 286 282 283 287 265 218 196 192 192 189 188 189 188 187 184 181 178 177 176 176 177 175 173 172 172 172 172 171 171 170 168 167 166 168 169 167 164 160 159 160 159 157 158 160 159 152 145
211 220 268 273 289 293 288 271 280 296 284 276 266 270 263 202 172 268 260 246 252 269 270 267 266 263 262 262 262 260 260 260 262 264 266 268 268 264 265 269 271 269 271 272 272 278 283 285 291 289 288 290 287 283 280 260 213 195 192 191 189 190 189 187 186 182 180 178 177 177 177 176 174 173 172 172 171 170 170 169 168 167 165 168 169 165 162 163 163 162 161 155 154 159 157 150 147
16 9 310 298 317 300 258 252 271 266 279 256 222 271 257 154 186 239 252 251 227 247 263 267 265 261 261 262 262 262 259 260 262 261 259 260 259 259 262 266 269 272 269 269 274 278 279 281 285 287 290 287 273 252 264 274 249 206 191 189 189 188 189 189 186 183 181 179 179 178 177 176 175 174 173 173 172 171 171 169 168 167 165 168 169 165 163 165 165 166 168 163 157 159 155 147 147
51 38 337 305 342 315 263 241 235 143 257 272 112 295 263 170 216 233 240 259 267 261 265 267 263 262 265 264 264 264 260 262 262 257 253 253 255 256 261 268 269 268 269 271 274 275 274 278 282 284 286 279 259 248 263 275 280 249 200 189 188 187 188 190 187 184 182 179 179 179 177 177 175 174 173 173 173 172 172 171 170 168 166 168 168 165 164 165 166 165 167 166 162 158 154 146 143
310 37 46 314 350 318 284 30 113 122 256 303 87 308 275 197 221 240 245 257 271 273 265 264 264 264 265 265 266 266 265 264 259 255 256 252 253 256 260 269 269 265 269 270 269 271 272 275 281 282 277 277 260 229 260 267 277 282 228 192 185 187 187 188 189 185 182 179 178 179 179 178 176 175 174 174 173 172 173 172 171 168 166 167 167 166 166 165 165 164 162 161 159 156 152 149 143
344 302 38 354 349 281 301 27 118 120 289 38 96 238 272 249 230 245 255 235 241 264 266 266 268 268 268 269 269 270 268 263 259 256 257 254 253 257 260 266 269 267 266 264 265 270 271 272 276 279 273 267 252 215 241 261 265 287 268 206 185 186 186 186 189 187 183 180 178 180 180 179 178 177 175 175 174 173 173 172 172 169 167 168 167 167 167 165 164 162 162 158 153 151 148 148 147
39 260 300 344 190 265 309 311 148 157 271 85 114 201 272 275 253 231 234 215 220 262 273 273 271 272 274 275 273 272 272 267 262 258 257 258 257 257 259 263 266 265 260 258 264 268 268 271 271 274 275 261 249 235 230 254 274 288 297 251 193 185 185 183 186 187 184 181 179 180 182 181 179 179 177 175 175 174 174 173 172 171 169 168 168 169 167 164 163 161 162 161 152 147 146 145 146
355 193 253 258 192 273 319 315 172 142 110 160 200 232 274 277 261 206 186 196 261 275 278 278 276 275 273 273 273 270 275 277 267 258 257 259 260 259 259 261 263 262 259 256 260 266 268 270 273 273 276 266 248 239 225 224 288 281 295 295 228 187 183 182 182 185 184 182 181 180 182 182 181 180 178 177 176 175 175 173 173 172 170 169 168 169 167 165 165 160 159 163 158 149 144 142 141
303 158 241 249 207 226 294 313 351 45 93 227 241 249 260 266 274 277 262 239 274 278 276 281 280 278 275 271 273 271 272 276 271 261 258 258 261 262 262 262 262 262 260 256 255 265 271 271 275 276 278 273 250 227 232 332 340 297 286 293 280 202 183 182 182 183 185 183 181 181 182 183 182 181 180 178 177 176 175 174 173 173 171 169 168 167 167 165 165 162 157 158 161 156 148 142 139
187 183 210 257 232 223 248 266 327 14 317 250 250 258 263 268 277 284 283 272 272 276 275 279 278 277 277 271 270 272 271 270 269 268 263 260 261 263 266 263 261 262 259 253 253 262 271 273 273 279 280 269 259 230 219 5 349 315 291 287 294 242 186 180 183 182 184 184 180 181 182 183 183 182 181 179 178 177 175 174 173 173 171 169 167 166 165 165 163 162 158 154 156 158 155 148 142
163 175 168 191 228 240 236 245 273 24 295 265 247 251 267 275 280 285 288 288 271 274 276 274 273 273 273 273 270 268 270 267 268 273 270 265 262 264 269 266 261 260 255 248 251 259 266 272 271 278 283 259 262 233 192 70 2 313 303 294 302 276 194 178 183 182 183 184 182 182 182 183 184 183 182 181 180 177 176 175 174 173 172 170 168 167 167 167 166 163 160 156 152 151 152 150 146
130 135 162 201 229 261 248 250 290 46 261 265 250 261 272 275 279 280 284 290 278 270 271 267 265 265 264 268 271 268 265 265 275 279 276 271 266 265 266 265 261 254 250 244 245 256 264 271 271 269 279 253 242 230 196 166 156 167 324 308 304 291 208 177 180 183 182 184 184 183 183 184 183 183 182 182 181 179 177 176 174 173 173 172 173 173 171 169 168 164 160 159 156 150 148 150 150
107 140 202 256 236 256 252 213 282 358 276 268 275 291 280 276 279 278 278 282 275 264 257 258 256 259 265 266 269 272 271 275 284 282 278 274 268 267 266 261 256 246 242 243 242 253 263 268 272 264 265 257 230 230 217 179 159 139 332 313 307 303 261 184 180 181 181 183 185 185 184 184 184 183 183 183 182 180 178 176 175 174 174 174 174 173 172 169 167 165 160 157 158 156 154 154 155
116 135 166 266 243 270 290 276 320 342 223 277 303 303 284 282 281 276 271 260 259 257 241 249 257 263 267 263 267 277 286 289 288 280 278 278 274 275 271 259 251 242 237 242 243 251 261 266 271 269 261 263 235 224 214 169 155 139 312 324 323 308 299 214 183 181 181 182 186 186 185 185 185 184 183 183 182 181 179 177 176 176 176 175 174 172 172 171 168 168 165 160 157 156 158 160 161
164 151 164 243 231 248 287 296 326 292 230 271 303 300 282 285 289 280 270 249 259 268 253 254 254 251 256 263 271 274 281 284 286 286 278 282 286 282 267 257 248 240 235 239 245 249 259 269 273 280 273 258 239 215 207 184 168 135 117 351 354 315 311 272 177 176 182 183 186 187 186 186 186 186 185 183 182 181 180 179 178 178 178 177 175 173 172 172 172 171 169 165 161 157 160 165 168
222 189 198 229 217 209 240 285 319 315 332 309 315 309 282 291 312 294 291 310 295 295 298 280 257 245 254 272 276 263 260 265 274 283 281 281 287 280 263 257 246 237 238 240 246 250 259 276 278 284 278 242 235 210 200 196 173 143 134 144 54 33 325 328 144 160 175 181 184 186 187 187 187 187 185 184 183 182 181 181 180 180 179 178 178 176 175 175 175 174 171 170 169 167 166 168 174
253 224 213 215 196 199 235 338 346 354 340 318 6 339 287 307 306 275 286 320 297 302 313 284 271 267 260 262 267 262 261 260 259 267 277 279 277 276 265 255 242 236 242 244 248 254 260 277 279 280 276 239 228 205 190 186 176 162 152 156 113 75 3 337 18 118 166 176 181 184 185 187 188 187 185 183 182 181 182 182 181 180 178 178 179 178 177 176 176 176 176 175 175 174 169 167 174
251 243 204 191 147 132 138 31 10 314 272 261 94 115 271 305 295 273 288 314 292 293 290 272 268 269 255 247 250 261 270 269 270 267 271 273 267 270 257 247 240 234 244 247 248 257 260 274 278 274 276 249 220 205 194 181 180 178 159 150 141 114 89 324 332 26 152 171 179 182 183 187 188 186 183 182 181 181 182 181 180 180 180 179 179 179 178 179 180 180 181 179 178 177 172 169 175
230 235 136 138 130 136 147 108 137 230 283 286 144 162 259 288 279 273 301 310 299 297 287 275 266 256 247 249 247 251 261 260 273 277 272 270 259 251 243 245 247 240 244 246 246 257 260 266 275 269 270 261 222 201 200 191 188 193 188 177 156 144 143 158 182 266 165 167 176 180 183 187 187 185 184 184 182 181 181 180 180 180 180 180 179 180 180 182 182 182 183 183 181 181 178 177 178
227 177 116 123 130 137 131 107 137 307 347 297 215 157 251 269 268 286 310 290 291 286 276 270 266 262 249 253 253 249 260 258 258 265 268 272 260 248 244 245 252 245 240 242 245 255 256 250 262 264 260 258 232 202 201 202 199 204 208 204 177 162 159 154 157 176 184 180 184 181 180 181 182 183 183 184 182 181 181 180 181 181 180 181 182 183 185 185 184 184 184 185 185 186 186 184 182
174 128 89 73 84 86 85 103 117 51 325 254 218 178 221 270 272 287 304 250 261 259 264 263 260 270 262 257 259 254 265 269 258 255 257 263 266 267 262 250 252 245 233 235 239 246 248 236 237 253 254 247 237 210 201 207 209 210 212 206 190 181 173 163 162 167 175 191 203 196 184 179 178 178 178 179 179 178 180 181 182 182 182 184 185 186 188 187 187 188 187 188 190 190 189 189 188
126 103 71 51 44 51 50 57 85 61 276 256 235 194 189 285 273 245 206 218 219 207 246 267 263 277 272 258 256 252 258 265 261 262 261 268 275 276 271 254 250 243 228 223 225 234 240 231 221 236 249 239 228 217 205 207 214 214 213 212 204 193 184 178 173 169 174 186 193 194 194 193 192 190 187 184 183 183 184 185 187 186 186 188 188 187 189 190 190 191 190 191 193 194 193 194 193
115 94 94 83 357 14 23 1 48 159 253 266 269 215 171 242 258 246 244 254 232 193 203 229 243 267 273 266 257 247 247 254 261 268 270 280 282 270 255 248 244 231 217 209 208 220 231 231 220 217 233 236 223 215 210 208 212 217 218 217 213 204 195 192 188 180 177 182 187 189 192 194 193 192 192 193 195 197 196 194 193 193 193 195 194 193 195 194 193 192 192 193 195 197 197 196 196
109 107 116 121 320 345 332 303 212 218 252 285 294 183 206 241 256 264 264 262 246 223 212 209 227 252 261 261 257 250 247 246 249 256 263 272 270 261 251 249 246 231 216 204 199 206 219 230 226 215 221 231 227 217 212 210 210 214 218 221 219 212 205 202 199 193 186 186 187 186 187 190 189 188 189 193 196 196 195 194 193 194 195 197 198 198 199 198 196 194 194 195 197 199 200 199 199
159 152 146 144 151 204 254 250 256 255 262 305 283 174 254 263 265 256 251 252 246 232 232 230 227 233 238 244 245 248 253 245 239 242 252 258 254 254 254 252 250 241 226 211 201 200 208 223 230 225 219 221 227 223 216 213 212 211 215 220 223 220 212 207 206 205 200 195 192 190 190 191 192 192 192 194 195 193 192 192 193 194 196 197 197 198 199 200 199 198 197 198 199 200 202 202 202
176 158 143 153 157 173 215 208 210 246 263 299 283 224 210 207 260 262 246 257 262 245 243 239 231 230 234 256 257 250 253 246 239 241 245 252 251 252 259 258 254 247 236 221 210 204 204 213 226 232 225 215 218 223 221 218 214 213 213 216 221 224 221 215 209 209 208 204 200 197 197 197 198 198 197 196 196 194 194 194 194 196 197 197 197 197 196 197 198 198 198 199 200 201 202 203 204
197 119 124 191 192 157 177 199 174 171 282 282 240 235 221 213 281 284 263 261 259 248 251 239 237 235 220 242 244 228 238 240 237 242 245 250 253 255 260 261 258 254 245 231 222 213 208 209 217 229 233 223 216 219 222 223 220 216 215 216 218 221 223 221 216 212 211 210 207 204 203 204 204 204 202 199 198 196 196 197 198 199 200 199 198 198 197 195 195 196 196 198 199 200 201 203 205
163 154 173 201 175 126 122 255 28 77 259 260 195 239 283 306 288 286 279 269 251 232 235 225 225 217 188 208 221 213 226 232 229 232 240 248 255 261 258 258 259 256 251 243 234 227 220 215 214 221 231 231 224 220 220 223 224 221 219 217 217 219 220 221 220 219 217 215 215 214 212 211 210 210 209 205 202 200 199 200 201 202 202 203 201 200 198 197 196 196 196 196 198 199 201 203 205
140 185 203 149 101 88 106 224 348 50 251 271 216 233 270 287 268 304 348 307 263 222 218 221 222 199 188 206 211 213 222 227 236 239 245 252 255 261 258 255 255 253 251 250 247 241 231 225 221 219 223 228 229 226 222 220 220 222 223 220 218 219 220 222 223 223 221 218 218 219 220 219 217 216 215 212 208 205 203 202 203 204 204 205 204 202 200 199 198 197 197 198 199 199 200 202 204
136 185 201 127 148 193 127 166 214 168 236 281 271 247 238 201 227 285 298 260 247 227 206 201 209 202 201 211 210 220 230 235 246 243 243 249 246 248 250 251 252 251 251 252 252 249 238 231 228 224 226 229 230 231 230 227 223 223 225 225 223 221 221 224 225 225 224 221 219 220 222 224 224 221 220 217 214 212 209 207 206 206 205 206 207 205 203 201 200 199 199 199 199 198 198 200 202
69 85 265 38 156 180 167 166 170 165 208 266 297 298 235 217 212 200 215 224 214 208 197 198 209 205 203 207 202 213 224 225 231 233 234 238 238 241 241 243 248 249 250 251 251 250 245 239 231 227 228 229 228 230 231 231 231 229 227 226 226 227 226 226 226 228 228 226 224 223 223 225 225 225 225 223 219 217 215 212 210 209 207 207 208 207 205 204 203 202 201 200 199 198 197 198 198
176 171 183 199 189 154 189 219 131 135 173 219 277 284 254 234 206 193 210 220 206 198 197 204 213 209 205 204 199 205 212 220 227 226 230 233 235 242 241 242 246 249 251 253 252 251 251 247 240 232 229 226 225 227 227 229 232 232 230 227 225 226 228 227 225 225 228 230 230 227 226 226 225 226 226 225 223 222 219 216 214 212 211 209 208 209 207 206 205 205 204 202 200 198 197 197 196
183 191 195 190 181 135 141 245 222 135 180 187 197 268 266 237 197 202 212 218 212 206 202 207 214 211 210 205 203 205 206 216 225 221 225 233 234 240 243 245 248 249 251 252 252 252 251 251 250 245 236 230 227 226 226 229 230 230 231 231 229 226 225 225 223 222 224 227 230 230 228 226 226 226 226 225 225 223 222 220 217 216 215 213 211 210 209 208 206 206 206 203 200 198 197 196 195
Height
799 798 797 797 796 797 797 798 811 815 818 824 821 820 807 796 796 794 790 787 788 780 774 775 771 768 770 772 770 771 773 774 777 785 787 770 762 764 763 765 765 766 769 771 774 777 780 783 784 785 786 788 791 794 797 799 801 802 804 807 810 813 815 817 816 816 815 815 817 819 821 823 824 825 825 826 828 829 830 832 833 835 836 837 838 839 840 842 842 843 843 844 845 846 846 847 848
798 798 797 797 796 797 801 802 817 825 825 826 821 818 806 797 797 794 792 791 790 781 774 772 770 768 766 766 766 770 772 769 769 771 770 763 764 766 765 765 764 766 768 771 774 776 780 782 784 786 787 788 790 792 795 798 800 802 803 805 808 811 814 816 818 818 817 816 817 818 820 822 824 825 826 827 828 829 830 831 833 834 835 837 838 839 840 842 843 843 844 845 846 846 847 848 848
798 798 797 797 797 798 803 806 819 831 830 825 817 812 805 799 795 792 790 789 786 779 775 770 768 768 767 769 769 773 773 767 766 766 765 764 764 764 765 766 765 766 767 770 773 775 777 780 783 785 787 789 790 791 793 796 799 801 803 805 807 809 812 815 817 819 819 818 818 819 820 821 824 825 826 827 828 829 830 831 832 833 835 836 837 838 840 841 843 844 845 845 846 847 848 848 849
798 798 797 797 799 801 807 813 820 828 828 826 817 806 801 798 792 790 789 787 784 780 779 775 771 766 766 774 769 770 773 767 764 763 764 763 761 762 764 766 767 767 768 769 771 773 775 777 780 782 785 788 790 791 792 794 797 800 802 805 806 808 810 813 816 819 820 820 819 819 820 821 823 825 826 827 828 829 830 831 832 833 834 836 837 838 840 841 843 844 845 846 847 848 848 849 849
798 798 798 797 801 804 809 817 823 824 819 819 813 801 798 796 794 793 791 788 783 784 786 782 780 771 766 771 769 776 781 772 766 765 764 762 761 762 764 767 768 769 769 769 770 772 773 776 778 780 783 785 788 790 792 794 795 798 801 804 806 808 809 811 814 817 820 820 821 821 821 821 822 824 826 827 828 829 830 831 832 833 834 836 837 839 840 841 843 844 845 846 847 848 849 849 850
798 798 798 797 801 803 811 819 822 821 811 810 809 799 797 797 799 797 792 788 783 786 788 785 789 781 772 773 774 782 786 778 773 771 769 766 765 764 764 767 768 770 771 772 772 772 773 775 776 778 780 782 785 788 791 793 794 796 799 802 804 807 809 810 812 814 818 820 821 822 822 822 822 824 825 827 828 830 831 831 832 833 834 836 837 838 840 842 843 845 846 847 848 849 849 850 850
797 798 799 801 804 806 816 820 818 818 809 806 805 798 799 799 799 795 792 791 786 787 788 788 788 783 781 782 781 781 781 780 777 776 774 770 770 768 767 768 769 771 772 774 774 774 774 775 776 777 779 780 782 784 788 791 793 795 797 800 802 805 808 810 811 813 816 818 821 822 822 822 823 824 825 827 828 830 832 832 833 834 835 836 837 838 840 842 843 845 846 847 848 849 850 850 851
797 800 803 805 812 814 820 820 817 818 809 803 802 800 802 801 799 797 796 796 795 794 793 791 786 784 785 785 785 781 777 778 778 777 774 772 774 773 772 771 771 772 773 775 776 777 777 776 777 777 778 780 781 781 783 787 791 793 795 797 800 803 806 809 811 812 814 816 819 821 822 823 823 824 825 827 829 831 832 833 833 834 836 836 837 838 840 842 844 845 846 848 848 849 850 851 851
798 801 805 808 816 819 821 820 817 817 809 803 802 802 802 801 801 799 799 799 799 799 797 793 788 789 789 787 785 781 778 777 777 775 774 775 776 777 777 776 774 772 773 775 776 777 778 779 778 778 779 779 780 780 781 783 787 790 793 795 798 801 804 807 810 812 814 815 817 819 822 823 823 824 825 827 829 831 832 833 833 835 836 837 838 839 840 842 844 845 847 848 848 849 850 851 852
800 803 806 812 818 822 823 821 817 813 808 805 802 803 802 800 801 800 801 799 798 799 797 794 792 794 794 790 785 782 782 778 775 774 775 777 777 778 779 779 779 776 774 773 774 776 777 779 779 780 779 780 781 780 781 782 783 787 790 793 795 798 802 805 808 811 813 815 816 818 821 823 824 824 825 827 829 830 832 833 834 835 837 838 839 840 841 842 844 845 847 848 848 850 850 851 852
803 805 806 814 821 821 821 819 815 809 807 807 804 802 801 800 801 801 802 799 798 798 795 793 794 797 795 790 785 784 783 779 777 776 776 778 778 779 779 780 781 780 778 775 774 775 777 778 780 781 781 781 782 781 781 781 782 784 787 790 793 796 799 802 806 809 812 814 816 817 819 821 824 825 826 827 828 830 832 833 834 836 837 838 840 841 841 843 844 845 847 848 849 850 850 851 852
804 808 808 815 821 817 818 817 812 807 806 806 804 803 801 800 801 802 803 800 799 799 795 794 795 797 796 790 785 782 780 780 780 778 777 776 777 779 780 780 780 781 780 778 776 775 776 778 780 781 782 782 783 783 782 782 782 782 784 787 790 793 796 799 803 807 810 813 815 817 818 820 823 825 826 828 829 830 831 832 834 836 838 839 840 841 842 843 844 846 847 848 849 850 850 851 852
804 810 810 815 821 817 818 819 812 809 806 803 804 804 802 802 803 803 804 801 801 800 795 794 794 794 795 789 783 781 780 781 780 779 778 777 777 778 778 780 781 780 780 780 779 777 776 776 778 780 781 782 783 784 784 783 782 782 783 784 787 790 793 796 800 804 808 811 814 816 818 820 822 824 825 828 829 830 831 833 834 836 838 839 840 841 843 844 845 846 847 848 849 850 850 851 852
804 809 808 814 824 820 816 816 813 813 807 802 804 804 802 803 804 803 802 799 798 797 793 792 792 793 792 787 784 783 781 781 781 780 779 779 778 778 777 779 781 780 779 779 779 778 777 776 777 778 780 782 783 784 785 784 783 783 783 784 785 788 790 793 796 801 805 809 812 815 817 819 821 823 824 827 829 830 832 833 834 836 837 839 840 841 843 844 846 847 848 849 849 850 850 851 853
804 808 809 813 822 820 815 813 810 812 807 803 806 804 803 802 802 801 801 799 795 793 792 789 790 791 790 788 785 782 782 781 780 780 779 778 778 778 777 778 779 779 778 778 779 778 776 776 776 777 778 780 782 782 784 785 784 784 784 784 785 786 788 790 793 797 801 805 809 813 816 819 821 822 823 826 829 831 832 834 835 836 837 839 840 842 844 845 846 847 848 849 849 850 851 852 853
805 807 811 814 819 819 815 813 811 811 806 805 806 804 803 802 802 801 800 799 795 792 793 790 789 789 786 786 784 781 781 781 780 780 778 777 776 776 776 776 776 777 777 777 777 777 776 776 775 776 776 776 778 780 781 783 784 784 784 785 785 785 787 789 791 794 798 802 806 810 814 817 820 822 823 824 828 830 832 834 836 837 838 839 841 842 844 845 846 847 848 849 850 850 851 852 853
805 806 813 816 818 818 811 810 809 807 805 806 806 804 804 802 802 801 798 798 795 792 793 790 787 786 784 782 782 781 781 780 780 779 778 777 775 774 774 774 774 774 775 777 777 775 775 776 774 772 771 771 772 775 777 779 782 784 785 785 785 786 787 788 790 792 795 799 803 807 811 815 818 821 823 824 826 829 831 834 836 837 839 840 841 842 844 845 846 847 848 849 850 851 852 853 854
805 809 815 813 815 814 807 806 805 804 804 806 806 806 805 802 802 801 797 796 796 793 789 787 784 782 782 781 781 781 780 780 779 779 778 777 776 775 773 772 772 772 772 774 775 774 774 775 774 770 766 766 766 767 770 774 778 782 784 785 786 786 787 788 790 792 794 796 800 803 808 812 815 818 821 823 825 827 830 832 835 837 839 841 842 843 844 845 846 848 849 850 850 851 852 853 854
808 814 815 809 810 809 805 804 804 805 804 805 807 807 805 803 803 801 798 796 797 795 786 783 781 776 776 778 780 780 779 778 778 778 778 777 777 775 773 771 769 770 771 771 772 772 772 772 773 772 765 762 762 763 764 767 771 776 781 783 784 785 786 787 789 791 793 795 797 800 804 808 812 815 818 821 824 826 828 830 833 836 839 841 842 843 845 846 847 848 849 850 851 852 853 854 855
809 814 812 807 809 808 806 805 804 804 804 805 806 807 806 804 804 802 802 798 797 797 789 784 781 775 773 773 776 778 778 777 776 777 777 776 776 775 773 771 768 767 768 769 769 769 768 768 768 770 768 764 761 761 761 761 764 769 775 779 781 783 784 785 787 789 791 793 795 797 800 804 808 812 816 820 822 825 827 830 832 834 837 840 842 843 845 846 847 848 849 850 851 852 853 854 856
811 811 807 806 811 808 805 806 805 804 805 805 805 807 805 803 804 803 804 802 795 791 788 786 783 779 777 774 772 773 774 774 774 775 775 775 774 773 772 770 768 766 766 766 767 767 766 765 765 766 768 768 762 759 759 758 759 763 768 773 777 780 782 783 784 786 788 792 794 796 798 801 806 810 814 818 821 823 826 828 830 833 835 837 840 842 844 845 846 848 848 850 851 853 854 855 857
810 810 808 808 811 807 804 806 806 805 804 804 805 806 803 801 803 801 803 803 793 784 783 785 784 782 780 778 775 773 772 770 769 770 771 772 772 771 769 768 767 765 764 763 763 765 764 763 763 763 764 766 763 757 757 757 757 760 763 768 772 776 779 781 782 783 785 789 792 794 797 799 803 807 811 815 818 821 824 826 829 831 833 835 837 840 842 844 846 848 849 850 851 852 854 855 857
808 808 809 809 810 807 804 805 805 805 805 804 804 804 803 803 801 799 800 796 786 781 781 783 782 781 780 780 779 777 775 772 769 767 766 768 768 768 767 765 765 764 762 760 760 762 762 761 761 761 761 762 762 758 758 759 758 758 761 764 768 772 775 778 780 781 782 785 789 792 794 797 800 804 808 812 816 819 822 825 827 829 831 833 835 837 840 843 845 847 849 850 851 853 854 856 856
809 807 808 807 808 807 805 806 806 806 804 803 805 804 804 804 800 798 793 786 781 780 780 781 780 779 780 780 778 777 775 773 770 767 766 765 764 764 764 763 762 761 760 758 758 758 759 760 760 759 759 758 760 760 758 759 760 759 760 763 765 768 772 775 777 779 780 782 785 789 792 795 798 801 805 809 813 817 820 823 825 827 829 832 834 837 839 841 843 846 848 850 852 853 854 855 855
809 807 808 807 807 806 806 807 804 805 803 802 805 802 802 802 802 798 787 779 778 778 778 779 779 778 779 778 776 774 773 771 768 767 766 764 762 762 761 760 759 759 757 756 756 756 756 757 758 757 758 757 757 760 759 757 758 760 760 760 763 766 769 773 775 777 779 780 782 785 789 792 796 798 802 806 810 814 817 820 823 825 828 830 833 836 838 840 842 844 847 849 851 853 854 855 855
808 808 809 808 807 806 806 804 801 802 801 801 801 800 800 801 803 794 779 775 774 775 778 777 778 777 775 775 772 771 770 768 766 764 763 761 761 760 758 757 757 756 755 754 754 754 754 755 755 754 755 754 752 755 759 760 757 757 759 758 760 764 767 771 774 776 777 778 780 782 785 789 793 796 799 804 807 811 815 818 821 823 826 829 831 834 837 839 841 843 845 847 850 852 854 855 855
810 809 808 807 808 807 806 803 801 803 801 800 799 798 799 801 804 790 770 770 773 774 776 775 776 775 772 771 769 768 767 764 762 761 760 759 758 757 756 755 754 753 752 752 752 753 753 752 752 751 750 749 748 750 757 763 759 753 754 756 758 760 765 768 771 774 776 777 778 780 783 786 791 794 797 802 805 808 812 816 818 821 824 827 829 832 835 838 841 843 845 846 848 850 853 855 856
810 809 806 805 807 805 803 801 800 802 800 797 799 796 796 802 801 784 767 766 772 774 774 774 774 772 770 768 766 765 762 760 759 759 757 755 754 754 753 752 751 750 750 749 750 750 751 750 749 749 747 746 748 750 755 761 761 754 750 751 754 757 762 766 768 771 774 776 778 780 782 785 788 792 796 800 803 807 810 814 817 819 822 825 828 830 833 837 840 843 845 847 848 851 853 855 856
809 809 806 804 805 799 795 798 798 800 798 795 799 788 781 794 786 768 767 768 772 776 773 773 771 769 767 765 764 761 758 756 755 754 752 751 750 750 749 749 749 748 747 747 747 748 747 748 747 746 746 746 748 749 752 758 761 758 752 746 748 754 759 763 766 768 771 774 777 780 782 784 787 790 794 798 802 805 808 812 815 818 820 823 826 829 832 836 839 842 844 846 849 851 853 855 855
807 811 811 807 803 795 792 799 799 799 800 795 799 787 766 773 774 763 770 773 772 773 770 770 768 767 765 763 761 758 754 753 752 750 747 747 746 746 746 745 746 745 745 745 745 745 745 745 746 745 744 745 746 747 751 755 757 758 754 746 743 749 754 758 763 766 768 771 775 778 781 784 786 788 792 796 800 804 807 811 813 816 819 821 824 827 830 834 836 839 842 845 848 850 852 855 855
810 810 812 814 805 792 792 800 798 796 801 797 800 799 770 760 768 768 771 773 773 770 766 767 765 764 762 759 758 754 750 748 747 746 744 743 743 743 743 742 743 743 743 743 742 742 742 743 743 743 742 743 744 745 747 750 752 755 755 748 741 743 749 753 759 763 766 769 773 777 780 783 785 788 790 794 798 802 806 809 813 815 817 820 823 826 829 832 835 838 841 843 847 850 851 854 856
814 805 802 814 810 797 794 797 798 793 799 802 801 801 780 761 763 767 768 770 773 769 765 765 763 761 759 756 754 751 747 744 743 742 740 740 740 739 739 739 739 740 740 740 740 740 740 741 741 741 740 741 742 743 743 744 747 752 753 751 743 740 744 749 754 760 763 766 770 774 778 782 784 787 789 792 796 800 804 808 811 814 816 818 822 825 828 830 833 837 840 842 845 848 850 853 857
816 808 799 807 809 804 798 795 800 798 798 803 800 796 781 762 758 764 769 770 770 769 764 761 759 758 756 753 751 748 744 741 739 738 737 737 736 736 735 736 736 737 738 738 738 738 738 738 738 737 737 738 739 740 741 739 742 748 750 751 748 740 739 744 750 756 761 764 767 771 776 781 783 786 788 791 794 797 802 806 809 812 814 817 820 824 827 829 832 835 840 843 844 847 850 852 856
808 816 810 807 809 808 799 792 800 803 800 801 802 800 785 765 759 762 766 769 769 766 762 757 755 754 752 751 748 745 743 740 736 734 734 734 733 732 732 732 734 734 736 736 735 735 735 735 735 734 734 735 735 737 739 737 737 743 748 751 751 743 736 739 745 751 757 761 764 768 773 778 782 784 787 790 793 796 800 803 807 810 812 816 819 822 826 829 831 833 837 842 844 846 849 852 854
792 806 809 805 807 808 803 797 800 803 801 801 804 802 787 767 763 761 758 765 768 762 758 756 753 751 749 748 746 742 741 737 732 730 731 731 729 729 729 729 731 732 733 733 733 733 732 732 732 732 732 733 733 733 735 733 732 740 748 751 752 746 735 735 741 745 752 757 761 766 770 775 779 782 785 788 791 795 799 802 805 808 810 814 818 821 825 828 831 833 836 840 844 846 849 851 854
789 797 800 799 799 802 804 802 803 807 803 801 802 798 786 769 765 763 756 760 764 758 756 754 752 751 748 746 743 741 739 734 729 728 728 728 727 726 726 727 728 730 730 730 731 731 730 730 730 731 732 732 732 733 732 730 731 739 746 749 751 747 735 731 738 742 747 754 758 763 768 772 776 780 783 786 790 793 796 800 802 805 808 812 815 819 822 825 828 831 833 837 842 846 849 851 853
798 799 801 802 802 801 802 802 804 810 802 794 796 797 788 774 768 766 757 757 760 756 755 753 750 748 745 743 740 737 736 731 727 727 726 725 725 723 724 725 726 727 728 728 729 729 728 729 730 731 732 733 732 733 732 729 732 738 745 748 747 745 735 728 734 740 744 750 756 761 765 769 773 776 780 784 787 791 794 797 800 803 806 809 812 815 818 822 826 829 832 835 838 843 848 850 852
800 801 802 804 808 803 802 806 807 809 806 796 796 797 785 771 766 762 757 756 754 750 750 746 742 742 741 739 737 734 732 729 727 726 725 723 722 721 722 723 724 725 725 726 726 727 727 727 728 730 732 732 731 732 733 731 732 737 743 744 742 742 738 730 731 737 741 747 754 759 764 767 771 774 777 780 784 787 791 794 797 800 803 807 810 814 818 821 824 827 830 834 837 840 844 848 849
803 806 806 803 808 805 801 811 813 809 807 797 795 798 780 763 762 756 751 752 748 746 746 741 737 736 735 734 732 731 729 727 726 724 723 722 720 719 720 720 721 723 723 724 724 725 725 725 726 728 729 729 730 732 733 732 731 734 738 741 738 739 740 734 731 736 741 746 752 758 762 766 768 771 774 777 781 784 787 790 794 798 801 804 807 812 816 818 821 825 826 830 835 840 844 847 847
804 807 806 800 805 803 793 802 812 808 808 803 799 798 778 757 752 744 745 752 747 744 745 742 741 737 732 732 731 730 729 725 724 723 722 721 719 718 718 718 720 721 722 722 723 723 723 723 723 726 727 727 730 731 731 730 730 731 734 737 735 736 740 736 730 734 741 746 751 756 760 763 766 769 772 774 778 781 784 787 790 794 798 800 804 807 812 814 816 820 823 826 829 835 841 845 847
806 807 803 797 800 802 798 804 810 805 808 812 802 784 760 746 742 732 739 751 744 739 741 735 736 737 733 732 730 728 728 725 723 721 720 720 718 717 716 717 719 720 721 720 721 722 722 722 722 723 725 726 728 728 728 728 728 729 730 733 733 733 739 737 730 734 741 746 751 755 757 761 765 767 770 772 775 779 782 785 787 791 795 799 801 805 808 812 814 816 819 821 823 826 832 838 844
804 801 798 796 796 801 807 810 807 799 798 808 804 779 750 740 740 732 735 743 737 737 738 729 726 730 731 729 725 723 723 723 723 720 719 719 718 716 715 716 718 718 719 719 720 722 722 721 721 721 724 725 725 725 726 726 727 728 729 731 731 730 736 739 735 737 742 746 751 754 757 760 763 766 769 771 773 777 780 783 786 790 794 797 800 803 807 811 814 816 817 818 821 823 826 833 838
799 796 798 803 803 806 810 809 805 798 794 803 811 796 772 754 739 733 743 745 735 732 730 724 725 724 724 723 720 720 719 718 719 719 719 719 717 716 714 714 716 717 718 719 720 721 721 721 719 720 721 723 723 722 723 724 725 728 729 731 730 728 733 739 740 741 744 749 752 755 758 760 762 764 768 772 774 776 779 782 785 788 792 795 798 802 805 808 811 814 817 817 820 824 825 828 832
796 800 805 806 807 808 810 810 808 807 807 808 813 810 797 774 743 737 753 744 725 722 717 715 718 717 717 718 717 717 717 716 717 716 716 717 716 715 713 713 715 716 718 719 719 720 720 720 718 718 719 720 721 721 722 722 724 727 729 730 730 728 730 735 740 743 746 751 756 758 759 761 763 764 767 771 773 776 778 780 783 787 791 795 798 802 805 808 810 812 816 819 820 823 823 823 826
797 807 809 806 807 809 812 814 812 819 819 803 803 810 795 768 740 739 751 736 718 715 710 708 711 711 712 714 715 716 715 716 717 716 714 714 715 713 712 712 713 715 717 718 718 718 719 719 718 716 717 718 719 719 721 722 724 726 727 728 730 730 730 732 737 743 747 752 757 760 760 760 762 764 766 768 770 774 777 779 782 785 790 794 797 800 804 807 810 812 814 817 819 820 821 822 823
801 810 809 810 814 816 818 818 815 822 815 788 787 798 780 750 728 728 735 726 715 710 707 711 711 710 712 712 713 714 714 714 714 715 714 713 713 712 711 711 712 714 716 717 717 717 717 718 717 716 715 716 717 718 720 722 723 725 726 727 729 730 731 732 734 738 744 750 754 759 761 762 763 765 767 768 769 773 776 779 783 785 788 793 795 797 800 803 807 810 812 815 816 818 821 822 823
803 806 806 811 818 822 824 825 822 812 792 780 794 800 783 755 724 715 719 714 708 704 704 711 711 709 710 709 710 711 711 711 711 712 713 712 711 710 710 709 710 712 714 716 716 716 716 716 717 716 715 716 716 718 719 721 723 724 725 727 728 730 732 734 735 736 739 744 748 753 757 760 762 765 768 771 773 775 778 780 783 787 789 791 794 796 797 800 803 808 811 814 816 817 820 822 823
801 798 801 803 808 817 820 823 822 798 770 782 816 816 798 768 724 706 714 713 712 709 703 704 706 707 707 706 707 708 709 709 710 710 710 710 710 709 709 708 709 711 712 714 715 716 716 715 716 717 716 716 717 718 719 720 722 723 725 726 728 730 731 733 735 736 738 740 743 747 750 754 756 757 760 765 768 769 772 775 777 781 784 787 791 794 796 798 801 805 808 811 814 816 818 820 822
800 798 800 797 797 799 796 801 807 791 775 795 818 809 794 771 730 713 715 710 711 714 709 704 705 706 705 706 705 705 708 708 708 709 708 709 709 708 709 708 708 710 711 714 715 716 716 715 716 717 717 717 717 718 719 720 721 723 725 727 728 730 731 732 733 735 737 739 741 744 746 750 751 751 751 754 756 758 761 764 766 768 771 775 780 785 790 795 798 801 804 807 809 812 815 817 818
798 794 792 789 794 789 776 784 792 780 781 805 815 799 780 756 724 713 712 703 703 711 711 708 706 706 703 703 704 704 707 708 707 708 708 708 708 707 708 707 708 709 710 713 714 716 717 716 716 716 717 718 717 718 720 721 722 723 725 727 728 730 730 731 732 733 736 738 740 743 744 746 748 748 748 749 753 755 758 761 763 764 765 767 770 773 777 784 790 794 798 802 804 807 810 814 815
794 791 789 781 779 772 760 765 766 761 778 805 810 783 750 722 705 707 710 705 706 707 708 710 709 708 706 705 706 705 706 707 707 707 707 707 707 707 708 707 707 708 709 711 713 714 717 717 718 717 717 719 719 720 721 722 724 725 726 728 728 729 730 730 731 732 734 736 738 741 742 743 745 746 748 749 752 755 757 759 762 764 766 768 770 771 771 774 779 784 789 794 798 802 806 810 813
794 795 794 784 773 766 767 777 779 779 785 793 794 769 738 717 703 705 707 703 705 705 704 708 706 706 708 706 705 705 705 706 706 706 706 705 706 706 706 706 705 706 707 708 710 712 714 716 718 718 718 720 720 721 722 722 725 726 727 728 728 729 729 729 730 731 733 734 736 738 740 741 743 746 748 749 751 753 755 758 760 763 766 768 770 771 771 771 773 776 780 786 791 795 800 804 808
790 795 787 783 781 773 772 787 800 799 777 762 765 751 732 722 703 694 698 696 699 703 702 703 700 701 704 702 702 704 704 704 704 705 704 703 705 705 705 705 704 704 705 706 707 708 710 713 715 717 719 720 721 722 723 723 724 726 727 727 728 728 728 728 729 730 732 734 735 737 739 741 742 745 747 748 750 752 754 756 759 762 765 768 769 769 770 770 771 773 774 778 782 788 793 797 801
783 787 779 780 786 782 773 773 784 792 773 752 751 739 722 718 701 689 693 690 690 696 699 701 700 700 700 698 701 703 702 703 703 703 704 703 705 704 703 703 702 702 703 703 704 706 708 709 711 714 716 717 718 719 721 722 723 723 724 725 726 726 726 727 728 729 731 732 735 736 738 740 741 744 746 747 749 750 752 755 757 760 762 766 768 768 769 769 769 770 772 773 775 780 785 790 794
777 776 775 774 772 775 778 770 763 769 764 745 745 748 733 715 697 685 683 682 682 689 697 700 698 698 698 697 701 702 702 703 702 702 703 702 703 702 701 701 700 700 700 701 703 704 705 707 708 710 711 713 715 716 717 718 719 720 721 721 722 723 724 725 726 728 729 731 733 734 736 738 740 742 744 746 747 748 750 753 755 757 760 763 766 767 767 768 768 769 770 771 772 774 778 782 787
780 778 778 777 770 765 768 767 757 752 749 738 734 736 723 706 694 683 677 678 680 685 693 695 694 694 695 697 699 700 700 700 699 699 700 700 700 699 699 698 697 698 698 699 700 701 703 704 705 707 709 710 711 712 713 714 715 716 717 718 719 720 721 722 724 725 727 729 731 732 734 735 737 740 741 743 745 747 749 751 753 755 757 759 762 764 765 766 767 768 768 769 770 771 773 776 780
773 775 775 776 774 769 764 763 763 753 744 742 733 714 696 693 693 681 674 677 680 682 684 688 691 692 694 696 696 695 697 696 696 697 697 697 697 697 696 696 695 696 696 697 698 699 700 701 703 704 706 707 709 710 711 712 713 714 715 716 717 718 719 721 722 724 726 727 728 730 732 734 735 737 739 741 742 745 747 749 751 753 754 756 758 760 761 763 764 766 767 768 768 769 771 773 776
757 761 762 760 759 762 756 752 764 766 750 742 738 714 685 683 689 682 676 677 679 683 682 683 689 690 692 695 694 693 693 693 693 694 694 695 695 695 694 694 694 694 694 695 696 697 698 698 700 701 703 705 706 707 708 709 711 712 713 714 715 717 718 720 722 723 725 726 727 729 731 733 734 736 738 739 740 742 744 746 749 750 751 754 755 756 758 759 760 762 764 765 765 767 769 771 773